This demonstration page uses our WeatherBlox Daily Observations layout. Learn more.

Left ArrowRight Arrow

41.12389, -100.76542

Hourly Observations for December 4, 2017

Temp ( °F °C ) Dew Point ( °F °C ) Humidity (%) Winds ( mph kmh ) Pressure ( in mb ) Visibility ( mi km ) Precip ( " mm )
12:24 am 00:24 Mostly Cloudy with Fog 32 0 31 -0.6 96 96 NW 5 7 29.59 1002 0 0 0.00 0.00
12:39 am 00:39 Mostly Cloudy with Mist and Fog 30 -1.1 30 -1.1 100 100 Calm 29.56 1001 1 1 0.00 0.00
12:46 am 00:46 Mostly Cloudy with Mist and Fog 30 -1.1 30 -1.1 100 100 Calm 29.56 1001 2 2 0.00 0.00
12:51 am 00:51 Mostly Cloudy with Mist and Fog 30 -1 28 -2 93 93 ENE 3 6 29.56 1001 1 1 0.00 0.00
12:53 am 00:53 Mostly Cloudy with Freezing Fog 30 -1.1 29 -1.7 96 96 Calm 29.45 997 1 1 0.00 0.00
1:15 am 01:15 Mostly Cloudy with Fog 32 0 31 -0.6 96 96 SSW 7 11 29.56 1001 0 0 0.00 0.00
1:25 am 01:25 Mostly Cloudy with Fog 33 0.6 33 0.6 100 100 Calm 29.53 1000 0 0 0.00 0.00
1:53 am 01:53 Mostly Cloudy with Freezing Fog 31 -0.6 31 -0.6 100 100 Calm 29.44 997 0 0 0.00 0.00
2:32 am 02:32 Mostly Cloudy with Mist and Fog 33 0.6 33 0.6 100 100 WNW 9 15 29.59 1002 1 2 0.00 0.00
2:38 am 02:38 Mostly Cloudy with Mist and Fog 33 0.6 33 0.6 100 100 NW 10 17 29.59 1002 2 3 0.00 0.00
2:48 am 02:48 Partly Cloudy with Mist and Fog 34 1 34 1 100 100 NW 8 13 29.56 1001 3 5 0.00 0.00
2:53 am 02:53 Mostly Clear with Mist and Fog 33 0.6 33 0.6 100 100 WNW 8 13 29.47 998 4 6 0.00 0.00
3:53 am 03:53 Clear with Mist and Fog 29 -1.7 29 -1.7 100 100 WNW 3 6 29.50 999 6 10 0.00 0.00
4:32 am 04:32 Clear with Mist and Fog 27 -2.8 27 -2.8 100 100 WNW 7 11 29.65 1004 2 3 0.00 0.00
4:41 am 04:41 Clear with Mist and Fog 28 -2.2 27 -2.8 96 96 NW 7 11 29.65 1004 4 6 0.00 0.00
4:53 am 04:53 Clear with Mist and Fog 28 -2.2 28 -2.2 100 100 NNW 3 6 29.52 1000 5 8 0.00 0.00
5:53 am 05:53 Clear 28 -2.2 26 -3.3 92 92 NNW 7 11 29.57 1001 10 16 0.00 0.00
6:53 am 06:53 Mostly Clear 33 0.6 31 -0.6 92 92 NW 8 13 29.60 1003 10 16 0.00 0.00
7:53 am 07:53 Mostly Sunny 39 3.9 34 1.1 82 82 NNW 21 33 29.67 1005 10 16 0.00 0.00
8:53 am 08:53 Partly Cloudy 36 2.2 30 -1.1 79 79 WNW 12 19 29.73 1007 10 16 0.00 0.00
9:33 am 09:33 Cloudy 39 3.9 30 -1.1 70 70 NW 24 39 29.77 1008 10 16 0.00 0.00
9:53 am 09:53 Cloudy 39 3.9 30 -1.1 70 70 NW 20 31 29.76 1008 10 16 0.00 0.00
10:53 am 10:53 Cloudy 38 3.3 29 -1.7 70 70 NW 25 41 29.81 1010 10 16 0.00 0.00
11:40 am 11:40 Cloudy 38 3.3 25 -3.9 60 60 NW 21 33 29.88 1012 10 16 0.00 0.00
11:53 am 11:53 Cloudy 38 3.3 25 -3.9 60 60 NW 25 41 29.85 1011 10 16 0.00 0.00
12:53 pm 12:53 Cloudy 37 2.8 23 -5 57 57 NW 36 57 29.91 1013 10 16 0.00 0.03
1:53 pm 13:53 Windy with Snow Likely 35 1.7 27 -2.8 72 72 NW 31 50 29.96 1015 4 6 0.00 0.03
2:53 pm 14:53 Cloudy 37 2.8 10 -12.2 33 33 NNW 32 52 29.98 1015 10 16 0.00 0.03
3:53 pm 15:53 Sunny 36 2.2 14 -10 40 40 NNW 18 30 30.05 1018 10 16 0.00 0.00
4:53 pm 16:53 Sunny 30 -1.1 8 -13.3 39 39 NNW 23 37 30.12 1020 10 16 0.00 0.00
5:53 pm 17:53 Clear 26 -3.3 6 -14.4 42 42 NNW 13 20 30.17 1022 10 16 0.00 0.00
6:53 pm 18:53 Clear 24 -4.4 6 -14.4 46 46 NNW 15 24 30.19 1023 10 16 0.00 0.00
7:53 pm 19:53 Clear 22 -5.6 5 -15 48 48 NW 12 19 30.22 1023 10 16 0.00 0.00
8:53 pm 20:53 Clear 21 -6.1 5 -15 50 50 WNW 12 19 30.24 1024 10 16 0.00 0.00
9:53 pm 21:53 Clear 17 -8.3 6 -14.4 62 62 NW 6 9 30.25 1024 10 16 0.00 0.00
10:53 pm 22:53 Clear 14 -10 7 -13.9 73 73 NNW 3 6 30.26 1025 10 16 0.00 0.00
11:53 pm 23:53 Clear 13 -10.6 7 -13.9 77 77 WNW 8 13 30.27 1025 10 16 0.00 0.00

Powered by AerisWeather